Location: Unspecified
(44.0704°N, 88.6889°W)
Time: 02:16:38
(UTC+02:00)

Vanguard 2 Rocket - All Passes

Search period start: 27 June 2019 00:00
Search period end: 07 July 2019 00:00
Orbit: 555 x 3326 km, 32.9° (Epoch: 26 June)

Date Brightness Start Highest point End Pass type
(mag) Time Alt. Az. Time Alt. Az. Time Alt. Az.
27 Jun - 03:07:29 10° S 03:11:22 18° SE 03:16:33 10° ESE daylight
27 Jun - 05:16:50 10° SW 05:23:33 41° SSE 05:34:51 10° ESE visible
27 Jun - 07:28:32 10° WSW 07:37:35 44° S 07:52:29 10° ESE visible
27 Jun - 09:42:08 10° W 09:52:48 31° SSW 10:07:39 10° SSE visible
27 Jun - 12:02:34 10° WSW 12:08:07 12° SW 12:14:08 10° SSW daylight
28 Jun - 04:18:31 10° SW 04:24:04 32° SSE 04:32:55 10° ESE visible
28 Jun - 06:29:36 10° WSW 06:37:21 44° S 06:50:32 10° ESE visible
28 Jun - 08:42:18 10° WSW 08:52:04 35° SSW 09:06:46 10° SE visible
28 Jun - 10:58:49 10° WSW 11:07:21 17° SW 11:17:37 10° S visible
29 Jun - 03:20:35 10° SSW 03:24:56 23° SSE 03:31:11 10° ESE daylight
29 Jun - 05:30:53 10° WSW 05:37:29 41° S 05:48:37 10° ESE visible
29 Jun - 07:42:55 10° WSW 07:51:35 38° SSW 08:05:25 10° SE visible
29 Jun - 09:57:28 10° WSW 10:06:38 22° SSW 10:18:40 10° SSE visible
30 Jun - 02:23:23 10° S 02:26:02 14° SE 02:29:16 10° ESE daylight
30 Jun - 04:32:24 10° SW 04:37:56 35° SSE 04:46:53 10° ESE visible
30 Jun - 06:43:52 10° WSW 06:51:22 39° S 07:03:49 10° SE visible
30 Jun - 08:57:12 10° WSW 09:06:01 26° SSW 09:18:34 10° SSE visible
01 Jul - 03:34:10 10° SW 03:38:42 28° SSE 03:45:26 10° ESE daylight
01 Jul - 05:45:05 10° WSW 05:51:29 39° S 06:02:11 10° ESE visible
01 Jul - 07:57:34 10° WSW 08:05:36 30° SSW 08:17:50 10° SE visible
01 Jul - 10:14:26 10° WSW 10:20:30 14° SSW 10:27:42 10° S visible
02 Jul - 02:36:17 10° SSW 02:39:42 19° SSE 02:44:09 10° ESE daylight
02 Jul - 04:46:30 10° WSW 04:51:55 35° S 05:00:41 10° ESE visible
02 Jul - 06:58:21 10° WSW 07:05:27 32° SSW 07:16:42 10° SE visible
02 Jul - 09:12:57 10° WSW 09:20:00 18° SSW 09:29:11 10° S visible
03 Jul - 01:39:27 10° SSE 01:40:49 11° SSE 01:42:20 10° SE daylight
03 Jul - 03:48:05 10° SW 03:52:36 30° SSE 03:59:28 10° ESE daylight
03 Jul - 05:59:26 10° WSW 06:05:35 33° S 06:15:27 10° SE visible
03 Jul - 08:12:43 10° WSW 08:19:40 21° SSW 08:29:23 10° SSE visible
04 Jul - 02:49:51 10° SW 02:53:31 23° SSE 02:58:31 10° ESE daylight
04 Jul - 05:00:44 10° WSW 05:05:59 32° S 05:14:15 10° ESE visible
04 Jul - 07:13:10 10° WSW 07:19:33 24° SSW 07:28:58 10° SSE visible
04 Jul - 09:32:41 10° SW 09:34:02 10° SSW 09:35:26 10° SSW night (unlit)
05 Jul - 01:51:58 10° SSW 01:54:35 16° SSE 01:57:40 10° ESE daylight
05 Jul - 04:02:10 10° SW 04:06:38 29° S 04:13:17 10° ESE visible
05 Jul - 06:14:02 10° WSW 06:19:42 26° SSW 06:28:16 10° SE visible
05 Jul - 08:29:15 10° SW 08:33:46 13° SSW 08:39:14 10° S visible
06 Jul - 03:03:45 10° SW 03:07:30 25° S 03:12:34 10° ESE daylight
06 Jul - 05:15:10 10° WSW 05:20:06 27° S 05:27:30 10° SE visible
06 Jul - 07:28:46 10° SW 07:33:42 16° SSW 07:40:09 10° SSE visible
